Home > Weather > Mariehamn > Past weeks

Flag for Åland Islands Weather for the Past 2 Weeks in Mariehamn, Åland Islands

Now
52 °F

Sunny.


Feels Like: 51 °F
Forecast: 44 / 55 °F
Wind: 5 mph from South

Location: Mariehamn / Aland Island

Current Time: May 5, 2016 at 9:24:28 PM

Latest Report: May 5, 2016 at 8:50 PM


Visibility: 10 mi

Pressure: 30.24 "Hg

Humidity: 58%

Dew Point: 37 °F

Location of MariehamnLocation

Historic Weather in Mariehamn — Graph

°F

Mariehamn Temperature Yesterday

Maximum temperature yesterday: 57 °F (at 10:20 AM)
Minimum temperature yesterday: 37 °F (at 1:50 AM)
Average temperature yesterday: 51 °F

High & Low Weather Summary for the Past Weeks

 TemperatureHumidityPressure
High66 °F (May 5, 3:50 PM)100% (Apr 21, 1:20 AM)30.39 "Hg (Apr 21, 1:20 AM)
Low25 °F (Apr 21, 3:20 AM)26% (May 5, 3:50 PM)29.53 "Hg (Apr 25, 4:20 AM)
Average43 °F74%29.97 "Hg
* Reported Apr 20 8:20 PM — May 5 8:20 PM, Mariehamn, Weather by CustomWeather, © 2016

Note: Actual official high and low records may vary slightly from our data, if they occured in-between our weather recording intervals... More about our weather records

Advertising

Mariehamn Weather History for the Previous 24 Hours

Scroll right to see more
 ConditionsComfort  
Time TempWeatherWind HumidityBarometerVisibility
8:20 PM
Thu, May 5
55 °FSunny.6 mph47%30.24 "Hg10 mi
7:50 PM59 °FPassing clouds.6 mph36%30.24 "HgN/A
7:20 PM59 °FSunny.7 mph39%30.24 "Hg10 mi
6:50 PM57 °FPassing clouds.6 mph44%30.24 "HgN/A
6:20 PM59 °FPassing clouds.7 mph42%30.24 "HgN/A
5:50 PM59 °FSunny.7 mph42%30.24 "Hg10 mi
5:20 PM61 °FPassing clouds.8 mph45%30.24 "HgN/A
4:50 PM64 °FPassing clouds.12 mph32%30.24 "HgN/A
4:20 PM66 °FPassing clouds.7 mph26%30.24 "HgN/A
3:50 PM66 °FSunny.2 mph26%30.24 "Hg10 mi
3:20 PM64 °FPassing clouds.7 mph28%30.27 "HgN/A
2:50 PM64 °FPassing clouds.8 mph28%30.27 "HgN/A
2:20 PM64 °FPassing clouds.9 mph30%30.27 "HgN/A
1:50 PM63 °FPassing clouds.10 mph34%30.27 "HgN/A
1:20 PM63 °FPassing clouds.12 mph37%30.27 "HgN/A
12:50 PM61 °FPassing clouds.10 mph36%30.27 "HgN/A
12:20 PM63 °FPassing clouds.10 mph32%30.27 "HgN/A
11:50 AM61 °FPassing clouds.10 mph34%30.27 "HgN/A
11:20 AM63 °FPassing clouds.6 mph39%30.27 "HgN/A
10:50 AM61 °FPassing clouds.6 mph39%30.27 "HgN/A
10:20 AM61 °FSunny.3 mph45%30.27 "Hg10 mi
9:50 AM57 °FSunny.3 mph51%30.27 "Hg10 mi
9:20 AM54 °FSunny.2 mph58%30.24 "Hg10 mi
8:50 AM52 °FSunny.3 mph62%30.24 "Hg10 mi
8:20 AM50 °FSunny.2 mph76%30.27 "Hg10 mi
7:50 AM48 °FSunny.No wind82%30.24 "Hg10 mi
7:20 AM43 °FSunny.No wind87%30.24 "Hg10 mi
6:50 AM37 °FSunny.No wind93%30.24 "Hg10 mi
6:20 AM36 °FClear.No wind100%30.24 "Hg10 mi
5:50 AM36 °FClear.No wind93%30.24 "Hg10 mi
5:20 AM36 °FClear.No wind93%30.24 "Hg10 mi
4:50 AM36 °FClear.No wind93%30.24 "Hg10 mi
4:20 AM36 °FClear.1 mph93%30.24 "Hg10 mi
3:50 AM37 °FClear.1 mph93%30.24 "Hg10 mi
3:20 AM37 °FClear.1 mph93%30.24 "Hg10 mi
2:50 AM39 °FClear.1 mph93%30.24 "Hg10 mi
2:20 AM37 °FClear.1 mph93%30.24 "Hg10 mi
1:50 AM39 °FClear.1 mph87%30.24 "Hg10 mi
1:20 AM39 °FClear.No wind87%30.24 "Hg10 mi
12:50 AM39 °FClear.No wind81%30.24 "Hg10 mi
12:20 AM41 °FClear.No wind81%30.24 "Hg10 mi
11:50 PM
Wed, May 4
41 °FClear.No wind81%30.24 "Hg10 mi
11:20 PM41 °FClear.No wind81%30.24 "Hg10 mi
10:50 PM45 °FClear.1 mph71%30.21 "Hg10 mi
10:20 PM48 °FSunny.3 mph62%30.21 "Hg10 mi
9:50 PM50 °FSunny.3 mph58%30.21 "Hg10 mi
9:20 PM52 °FSunny.3 mph50%30.21 "Hg10 mi
Weather by CustomWeather, © 2016

See weather overviewHow to use our weather pages